Time,TemperatureF,DewpointF,PressureIn,WindDirection,WindDirectionDegrees,WindSpeedMPH,WindSpeedGustMPH,Humidity,HourlyPrecipIn,Conditions,Clouds,dailyrainin,SoftwareType,DateUTC
2013-04-06 00:01:00,34.3,30.6,29.91,ESE,115,6.3,8.7,86,0.00,,---,0.00,VWS V14.00,2013-04-06 05:01:00,
2013-04-06 00:06:00,34.5,30.8,29.91,East,86,7.6,7.6,86,0.00,,---,0.00,VWS V14.00,2013-04-06 05:06:00,
2013-04-06 00:11:00,34.5,30.8,29.91,East,82,3.6,8.3,86,0.00,,---,0.00,VWS V14.00,2013-04-06 05:11:00,
2013-04-06 00:17:00,34.5,30.8,29.88,East,88,4.0,10.5,86,0.00,,---,0.00,VWS V14.00,2013-04-06 05:17:00,
2013-04-06 00:22:00,34.5,30.8,29.88,ESE,111,5.4,6.3,86,0.00,,---,0.00,VWS V14.00,2013-04-06 05:22:00,
2013-04-06 00:27:00,34.7,31.0,29.88,East,101,5.8,7.6,86,0.00,,---,0.00,VWS V14.00,2013-04-06 05:27:00,
2013-04-06 00:32:00,34.7,31.0,29.88,East,93,4.9,11.0,86,0.00,,---,0.00,VWS V14.00,2013-04-06 05:32:00,
2013-04-06 00:37:00,34.7,31.0,29.88,ESE,103,6.7,6.7,86,0.00,,---,0.00,VWS V14.00,2013-04-06 05:37:00,
2013-04-06 00:42:00,34.7,30.7,29.88,East,96,8.1,10.5,85,0.00,,---,0.00,VWS V14.00,2013-04-06 05:42:00,
2013-04-06 00:47:00,34.9,30.8,29.88,ENE,71,5.4,5.8,85,0.00,,---,0.00,VWS V14.00,2013-04-06 05:47:00,
2013-04-06 00:52:00,34.9,30.8,29.88,ENE,72,4.0,4.0,85,0.00,,---,0.00,VWS V14.00,2013-04-06 05:52:00,
2013-04-06 00:57:00,34.9,30.5,29.88,ENE,65,4.0,6.3,84,0.00,,---,0.00,VWS V14.00,2013-04-06 05:57:00,
2013-04-06 01:02:00,34.9,30.5,29.88,East,92,4.9,10.1,84,0.00,,---,0.00,VWS V14.00,2013-04-06 06:02:00,
2013-04-06 01:07:00,35.1,30.7,29.88,East,95,6.3,8.7,84,0.00,,---,0.00,VWS V14.00,2013-04-06 06:07:00,
2013-04-06 01:12:00,35.1,30.4,29.88,East,96,13.2,13.2,83,0.00,,---,0.00,VWS V14.00,2013-04-06 06:12:00,
2013-04-06 01:17:00,35.1,30.4,29.85,East,88,8.1,8.3,83,0.00,,---,0.00,VWS V14.00,2013-04-06 06:17:00,
2013-04-06 01:22:00,35.1,30.1,29.85,East,89,3.1,8.7,82,0.00,,---,0.00,VWS V14.00,2013-04-06 06:22:00,
2013-04-06 01:27:00,35.1,30.1,29.85,East,83,5.4,7.2,82,0.00,,---,0.00,VWS V14.00,2013-04-06 06:27:00,
2013-04-06 01:32:00,35.1,29.8,29.85,East,86,8.1,11.0,81,0.00,,---,0.00,VWS V14.00,2013-04-06 06:32:00,
2013-04-06 01:37:00,35.2,29.7,29.85,ESE,118,5.4,6.3,80,0.00,,---,0.00,VWS V14.00,2013-04-06 06:37:00,
2013-04-06 01:42:00,35.4,29.6,29.82,SE,138,4.5,6.3,79,0.00,,---,0.00,VWS V14.00,2013-04-06 06:42:00,
2013-04-06 01:47:00,35.4,29.6,29.82,ESE,104,2.7,8.1,79,0.00,,---,0.00,VWS V14.00,2013-04-06 06:47:00,
2013-04-06 01:52:00,35.4,29.2,29.82,ESE,117,6.3,6.3,78,0.00,,---,0.00,VWS V14.00,2013-04-06 06:52:00,
2013-04-06 01:57:00,35.4,29.2,29.82,East,86,4.9,8.1,78,0.00,,---,0.00,VWS V14.00,2013-04-06 06:57:00,
2013-04-06 02:02:00,35.4,28.9,29.82,East,94,3.6,6.7,77,0.00,,---,0.00,VWS V14.00,2013-04-06 07:02:00,
2013-04-06 02:07:00,35.6,28.8,29.82,ESE,119,3.6,11.0,76,0.00,,---,0.00,VWS V14.00,2013-04-06 07:07:00,
2013-04-06 02:13:00,35.6,28.5,29.82,ESE,104,6.3,6.7,75,0.00,,---,0.00,VWS V14.00,2013-04-06 07:13:00,
2013-04-06 02:18:00,35.8,28.6,29.82,East,86,7.6,10.1,75,0.00,,---,0.00,VWS V14.00,2013-04-06 07:18:00,
2013-04-06 02:23:00,35.8,28.3,29.82,ESE,122,3.1,10.1,74,0.00,,---,0.00,VWS V14.00,2013-04-06 07:23:00,
2013-04-06 02:28:00,35.8,28.0,29.82,ESE,112,8.7,8.7,73,0.00,,---,0.00,VWS V14.00,2013-04-06 07:28:00,
2013-04-06 02:33:00,35.8,28.0,29.82,SE,133,4.9,8.3,73,0.00,,---,0.00,VWS V14.00,2013-04-06 07:33:00,
2013-04-06 02:38:00,35.8,27.6,29.82,ESE,116,2.7,7.6,72,0.00,,---,0.00,VWS V14.00,2013-04-06 07:38:00,
2013-04-06 02:44:00,36.0,27.5,29.79,SE,141,5.8,11.0,71,0.00,,---,0.00,VWS V14.00,2013-04-06 07:44:00,
2013-04-06 02:49:00,36.0,27.5,29.79,ESE,123,2.7,6.3,71,0.00,,---,0.00,VWS V14.00,2013-04-06 07:49:00,
2013-04-06 02:54:00,36.0,27.5,29.79,SE,129,3.1,5.4,71,0.00,,---,0.00,VWS V14.00,2013-04-06 07:54:00,
2013-04-06 02:59:00,36.0,27.1,29.79,SSE,152,3.6,10.1,70,0.00,,---,0.00,VWS V14.00,2013-04-06 07:59:00,
2013-04-06 03:04:00,36.1,27.3,29.79,ESE,121,5.8,12.8,70,0.00,,---,0.00,VWS V14.00,2013-04-06 08:04:00,
2013-04-06 03:09:00,36.1,27.0,29.79,East,87,5.4,8.7,69,0.00,,---,0.00,VWS V14.00,2013-04-06 08:09:00,
2013-04-06 03:14:00,36.3,27.1,29.79,East,86,4.0,10.1,69,0.00,,---,0.00,VWS V14.00,2013-04-06 08:14:00,
2013-04-06 03:19:00,36.3,27.1,29.79,SE,142,3.1,8.1,69,0.00,,---,0.00,VWS V14.00,2013-04-06 08:19:00,
2013-04-06 03:24:00,36.3,26.8,29.79,ESE,108,2.7,6.3,68,0.00,,---,0.00,VWS V14.00,2013-04-06 08:24:00,
2013-04-06 03:29:00,36.5,27.0,29.76,ESE,109,5.8,8.1,68,0.00,,---,0.00,VWS V14.00,2013-04-06 08:29:00,
2013-04-06 03:34:00,36.5,26.6,29.76,SE,140,7.6,7.6,67,0.00,,---,0.00,VWS V14.00,2013-04-06 08:34:00,
2013-04-06 03:39:00,36.7,26.8,29.76,SSE,150,5.4,11.0,67,0.00,,---,0.00,VWS V14.00,2013-04-06 08:39:00,
2013-04-06 03:44:00,36.9,26.6,29.76,ENE,73,6.3,8.7,66,0.00,,---,0.00,VWS V14.00,2013-04-06 08:44:00,
2013-04-06 03:49:00,36.9,26.6,29.76,East,79,8.1,8.1,66,0.00,,---,0.00,VWS V14.00,2013-04-06 08:49:00,
2013-04-06 03:54:00,36.9,26.2,29.76,ESE,107,5.8,6.3,65,0.00,,---,0.00,VWS V14.00,2013-04-06 08:54:00,
2013-04-06 03:59:00,37.0,26.4,29.76,SE,130,11.0,11.0,65,0.00,,---,0.00,VWS V14.00,2013-04-06 08:59:00,
2013-04-06 04:04:00,37.2,25.8,29.76,East,80,3.6,8.1,63,0.00,,---,0.00,VWS V14.00,2013-04-06 09:04:00,
2013-04-06 04:10:00,37.6,25.4,29.76,ESE,110,9.2,9.2,61,0.00,,---,0.00,VWS V14.00,2013-04-06 09:10:00,
2013-04-06 04:15:00,37.9,24.9,29.73,SSE,156,7.2,7.2,59,0.00,,---,0.00,VWS V14.00,2013-04-06 09:15:00,
2013-04-06 04:20:00,38.1,24.7,29.73,SE,129,5.4,8.1,58,0.00,,---,0.00,VWS V14.00,2013-04-06 09:20:00,
2013-04-06 04:25:00,38.3,24.4,29.73,SE,140,4.5,8.7,57,0.00,,---,0.00,VWS V14.00,2013-04-06 09:25:00,
2013-04-06 04:30:00,38.3,24.4,29.73,SE,126,5.4,10.1,57,0.00,,---,0.00,VWS V14.00,2013-04-06 09:30:00,
2013-04-06 04:35:00,38.3,24.0,29.73,ESE,110,11.4,11.4,56,0.00,,---,0.00,VWS V14.00,2013-04-06 09:35:00,
2013-04-06 04:40:00,38.5,24.2,29.73,SSE,166,5.8,8.3,56,0.00,,---,0.00,VWS V14.00,2013-04-06 09:40:00,
2013-04-06 04:45:00,38.5,24.2,29.73,ESE,121,8.7,11.0,56,0.00,,---,0.00,VWS V14.00,2013-04-06 09:45:00,
2013-04-06 04:50:00,38.5,24.2,29.73,South,177,4.0,8.7,56,0.00,,---,0.00,VWS V14.00,2013-04-06 09:50:00,
2013-04-06 04:55:00,38.3,24.0,29.73,East,95,7.2,8.7,56,0.00,,---,0.00,VWS V14.00,2013-04-06 09:55:00,
2013-04-06 05:00:00,38.3,24.0,29.73,SE,127,5.4,12.8,56,0.00,,---,0.00,VWS V14.00,2013-04-06 10:00:00,
2013-04-06 05:05:00,38.1,23.8,29.73,SE,128,8.1,13.2,56,0.00,,---,0.00,VWS V14.00,2013-04-06 10:05:00,
2013-04-06 05:10:00,38.1,23.8,29.73,ESE,119,3.6,8.7,56,0.00,,---,0.00,VWS V14.00,2013-04-06 10:10:00,
2013-04-06 05:15:00,38.3,24.0,29.73,SE,144,5.4,8.3,56,0.00,,---,0.00,VWS V14.00,2013-04-06 10:15:00,
2013-04-06 05:20:00,38.3,24.0,29.73,SE,141,4.0,9.6,56,0.00,,---,0.00,VWS V14.00,2013-04-06 10:20:00,
2013-04-06 05:25:00,38.3,24.0,29.73,South,170,5.4,7.6,56,0.00,,---,0.00,VWS V14.00,2013-04-06 10:25:00,
2013-04-06 05:30:00,38.5,24.2,29.70,SSE,151,6.3,6.3,56,0.00,,---,0.00,VWS V14.00,2013-04-06 10:30:00,
2013-04-06 05:35:00,38.5,24.2,29.70,ESE,116,8.1,12.8,56,0.00,,---,0.00,VWS V14.00,2013-04-06 10:35:00,
2013-04-06 05:40:00,38.5,24.2,29.70,SSE,151,3.1,8.7,56,0.00,,---,0.00,VWS V14.00,2013-04-06 10:40:00,
2013-04-06 05:45:00,38.5,24.2,29.70,ESE,109,9.2,9.2,56,0.00,,---,0.00,VWS V14.00,2013-04-06 10:45:00,
2013-04-06 05:50:00,38.7,24.3,29.70,East,96,8.7,10.5,56,0.00,,---,0.00,VWS V14.00,2013-04-06 10:50:00,
2013-04-06 05:55:00,38.7,24.3,29.70,ESE,112,8.1,11.0,56,0.00,,---,0.00,VWS V14.00,2013-04-06 10:55:00,
2013-04-06 06:00:00,38.5,24.2,29.70,SSE,147,6.3,8.1,56,0.00,,---,0.00,VWS V14.00,2013-04-06 11:00:00,
2013-04-06 06:06:00,38.5,24.2,29.70,SSE,153,5.8,8.3,56,0.00,,---,0.00,VWS V14.00,2013-04-06 11:06:00,
2013-04-06 06:11:00,38.5,24.2,29.70,ESE,114,5.8,8.3,56,0.00,,---,0.00,VWS V14.00,2013-04-06 11:11:00,
2013-04-06 06:16:00,38.3,24.4,29.70,ESE,114,3.6,11.0,57,0.00,,---,0.00,VWS V14.00,2013-04-06 11:16:00,
2013-04-06 06:21:00,38.3,24.4,29.70,SE,136,8.3,10.1,57,0.00,,---,0.00,VWS V14.00,2013-04-06 11:21:00,
2013-04-06 06:26:00,38.3,24.4,29.70,East,95,5.4,6.3,57,0.00,,---,0.00,VWS V14.00,2013-04-06 11:26:00,
2013-04-06 06:31:00,38.1,24.2,29.70,SE,142,10.1,10.1,57,0.00,,---,0.00,VWS V14.00,2013-04-06 11:31:00,
2013-04-06 06:33:00,38.1,24.2,29.70,SE,132,5.8,10.5,57,0.00,,---,0.00,VWS V14.00,2013-04-06 11:33:00,
2013-04-06 06:38:00,38.1,24.2,29.70,ESE,115,5.8,8.1,57,0.00,,---,0.00,VWS V14.00,2013-04-06 11:38:00,
2013-04-06 06:43:00,38.1,24.2,29.70,ESE,103,6.3,8.1,57,0.00,,---,0.00,VWS V14.00,2013-04-06 11:43:00,
2013-04-06 06:48:00,38.1,24.2,29.70,SE,144,8.1,8.7,57,0.00,,---,0.00,VWS V14.00,2013-04-06 11:48:00,
2013-04-06 06:53:00,38.3,24.4,29.70,ESE,102,6.3,8.3,57,0.00,,---,0.00,VWS V14.00,2013-04-06 11:53:00,
2013-04-06 06:58:00,38.3,24.0,29.70,ESE,110,8.1,8.1,56,0.00,,---,0.00,VWS V14.00,2013-04-06 11:58:00,
2013-04-06 07:03:00,38.3,24.0,29.70,ESE,119,4.0,9.6,56,0.00,,---,0.00,VWS V14.00,2013-04-06 12:03:00,
2013-04-06 07:08:00,38.5,23.7,29.70,SE,137,8.3,8.3,55,0.00,,---,0.00,VWS V14.00,2013-04-06 12:08:00,
2013-04-06 07:13:00,38.5,23.7,29.67,East,95,3.6,6.3,55,0.00,,---,0.00,VWS V14.00,2013-04-06 12:13:00,
2013-04-06 07:18:00,38.7,23.5,29.67,SE,128,8.1,8.1,54,0.00,,---,0.00,VWS V14.00,2013-04-06 12:18:00,
2013-04-06 07:23:00,38.7,23.5,29.67,ESE,121,7.6,7.6,54,0.00,,---,0.00,VWS V14.00,2013-04-06 12:23:00,
2013-04-06 07:28:00,38.7,23.0,29.67,SSE,157,10.1,10.1,53,0.00,,---,0.00,VWS V14.00,2013-04-06 12:28:00,
2013-04-06 07:33:00,38.8,22.7,29.67,SSE,163,4.9,8.7,52,0.00,,---,0.00,VWS V14.00,2013-04-06 12:33:00,
2013-04-06 07:38:00,38.8,22.7,29.67,SSE,149,3.1,7.2,52,0.00,,---,0.00,VWS V14.00,2013-04-06 12:38:00,
2013-04-06 07:43:00,39.0,22.4,29.67,ESE,117,5.8,6.3,51,0.00,,---,0.00,VWS V14.00,2013-04-06 12:43:00,
2013-04-06 07:49:00,39.2,22.1,29.67,SSE,167,5.4,8.3,50,0.00,,---,0.00,VWS V14.00,2013-04-06 12:49:00,
2013-04-06 07:54:00,39.6,22.5,29.67,SSE,149,3.6,8.3,50,0.00,,---,0.00,VWS V14.00,2013-04-06 12:54:00,
2013-04-06 07:59:00,39.7,22.2,29.67,SE,125,8.7,12.8,49,0.00,,---,0.00,VWS V14.00,2013-04-06 12:59:00,
2013-04-06 08:04:00,40.1,22.0,29.67,ESE,123,7.2,8.1,48,0.00,,---,0.00,VWS V14.00,2013-04-06 13:04:00,
2013-04-06 08:09:00,40.5,21.8,29.67,East,98,5.8,9.6,47,0.00,,---,0.00,VWS V14.00,2013-04-06 13:09:00,
2013-04-06 08:14:00,40.6,21.5,29.64,SE,134,8.7,9.6,46,0.00,,---,0.00,VWS V14.00,2013-04-06 13:14:00,
2013-04-06 08:19:00,41.5,21.8,29.64,SE,142,5.8,6.3,45,0.00,,---,0.00,VWS V14.00,2013-04-06 13:19:00,
2013-04-06 08:24:00,41.7,21.4,29.64,East,97,5.8,6.3,44,0.00,,---,0.00,VWS V14.00,2013-04-06 13:24:00,
2013-04-06 08:29:00,41.5,20.7,29.64,ESE,119,3.6,7.6,43,0.00,,---,0.00,VWS V14.00,2013-04-06 13:29:00,
2013-04-06 08:35:00,41.2,20.4,29.64,ESE,116,7.6,8.3,43,0.00,,---,0.00,VWS V14.00,2013-04-06 13:35:00,
2013-04-06 08:40:00,41.0,20.8,29.64,ESE,106,5.4,8.1,44,0.00,,---,0.00,VWS V14.00,2013-04-06 13:40:00,
2013-04-06 08:45:00,40.6,20.5,29.64,SE,138,8.3,12.3,44,0.00,,---,0.00,VWS V14.00,2013-04-06 13:45:00,
2013-04-06 08:50:00,40.6,20.5,29.64,ESE,118,6.3,10.5,44,0.00,,---,0.00,VWS V14.00,2013-04-06 13:50:00,
2013-04-06 08:55:00,40.6,21.0,29.64,SE,128,5.4,10.1,45,0.00,,---,0.00,VWS V14.00,2013-04-06 13:55:00,
2013-04-06 09:00:00,40.5,20.8,29.64,ESE,115,7.6,8.3,45,0.00,,---,0.00,VWS V14.00,2013-04-06 14:00:00,
2013-04-06 09:05:00,40.3,20.6,29.64,ESE,116,3.6,7.6,45,0.00,,---,0.00,VWS V14.00,2013-04-06 14:05:00,
2013-04-06 09:10:00,40.3,21.7,29.64,SE,126,6.3,7.6,47,0.00,,---,0.00,VWS V14.00,2013-04-06 14:10:00,
2013-04-06 09:15:00,39.9,22.3,29.64,SE,127,3.6,11.0,49,0.00,,---,0.00,VWS V14.00,2013-04-06 14:15:00,
2013-04-06 09:20:00,39.7,23.6,29.64,ESE,116,5.8,8.3,52,0.00,,---,0.00,VWS V14.00,2013-04-06 14:20:00,
2013-04-06 09:25:00,39.7,24.0,29.64,SE,130,3.1,5.8,53,0.00,,---,0.00,VWS V14.00,2013-04-06 14:25:00,
2013-04-06 09:30:00,39.9,24.2,29.61,SE,130,3.1,5.4,53,0.00,,---,0.00,VWS V14.00,2013-04-06 14:30:00,
2013-04-06 09:35:00,40.8,25.0,29.61,SE,138,6.3,6.3,53,0.00,,---,0.00,VWS V14.00,2013-04-06 14:35:00,
2013-04-06 09:40:00,42.3,25.9,29.61,ESE,117,3.6,5.8,52,0.00,,---,0.00,VWS V14.00,2013-04-06 14:40:00,
2013-04-06 09:45:00,43.9,25.5,29.61,ESE,109,8.3,8.3,48,0.00,,---,0.00,VWS V14.00,2013-04-06 14:45:00,
2013-04-06 09:50:00,44.8,25.8,29.61,SE,134,5.4,5.8,47,0.00,,---,0.00,VWS V14.00,2013-04-06 14:50:00,
2013-04-06 09:55:00,45.7,25.0,29.61,SE,133,8.1,13.2,44,0.00,,---,0.00,VWS V14.00,2013-04-06 14:55:00,
2013-04-06 10:00:00,46.9,24.5,29.58,SSE,160,4.0,13.2,41,0.00,,---,0.00,VWS V14.00,2013-04-06 15:00:00,
2013-04-06 10:05:00,46.8,23.7,29.58,SE,135,8.3,13.2,40,0.00,,---,0.00,VWS V14.00,2013-04-06 15:05:00,
2013-04-06 10:10:00,47.1,24.1,29.58,SSE,162,5.4,8.3,40,0.00,,---,0.00,VWS V14.00,2013-04-06 15:10:00,
2013-04-06 10:16:00,47.3,24.2,29.58,ESE,111,6.3,8.3,40,0.00,,---,0.00,VWS V14.00,2013-04-06 15:16:00,
2013-04-06 10:21:00,47.3,24.2,29.58,SE,139,8.3,13.2,40,0.00,,---,0.00,VWS V14.00,2013-04-06 15:21:00,
2013-04-06 10:26:00,47.7,24.5,29.58,ESE,111,8.1,12.3,40,0.00,,---,0.00,VWS V14.00,2013-04-06 15:26:00,
2013-04-06 10:31:00,48.7,24.9,29.58,SE,143,8.1,8.1,39,0.00,,---,0.00,VWS V14.00,2013-04-06 15:31:00,
2013-04-06 10:36:00,49.1,24.6,29.58,SE,136,8.7,12.8,38,0.00,,---,0.00,VWS V14.00,2013-04-06 15:36:00,
2013-04-06 10:42:00,49.3,24.8,29.58,SE,144,8.3,10.5,38,0.00,,---,0.00,VWS V14.00,2013-04-06 15:42:00,
2013-04-06 10:47:00,49.8,25.2,29.58,ESE,122,5.4,12.3,38,0.00,,---,0.00,VWS V14.00,2013-04-06 15:47:00,
2013-04-06 10:52:00,50.2,25.6,29.58,ESE,123,8.1,10.1,38,0.00,,---,0.00,VWS V14.00,2013-04-06 15:52:00,
2013-04-06 10:57:00,50.5,25.9,29.58,ESE,108,5.8,8.1,38,0.00,,---,0.00,VWS V14.00,2013-04-06 15:57:00,
2013-04-06 11:02:00,51.3,26.5,29.58,SSE,154,8.3,8.3,38,0.00,,---,0.00,VWS V14.00,2013-04-06 16:02:00,
2013-04-06 11:07:00,51.4,26.0,29.58,East,91,4.0,12.8,37,0.00,,---,0.00,VWS V14.00,2013-04-06 16:07:00,
2013-04-06 11:12:00,51.3,25.9,29.58,East,100,8.1,8.3,37,0.00,,---,0.00,VWS V14.00,2013-04-06 16:12:00,
2013-04-06 11:17:00,51.8,26.4,29.58,East,84,6.3,14.5,37,0.00,,---,0.00,VWS V14.00,2013-04-06 16:17:00,
2013-04-06 11:22:00,52.5,27.0,29.58,SE,130,5.4,9.6,37,0.00,,---,0.00,VWS V14.00,2013-04-06 16:22:00,
2013-04-06 11:27:00,53.1,27.5,29.55,SSE,153,4.9,8.3,37,0.00,,---,0.00,VWS V14.00,2013-04-06 16:27:00,
2013-04-06 11:32:00,54.0,27.6,29.55,SSW,199,4.0,12.3,36,0.00,,---,0.00,VWS V14.00,2013-04-06 16:32:00,
2013-04-06 11:37:00,55.6,29.1,29.55,South,172,6.3,8.3,36,0.00,,---,0.00,VWS V14.00,2013-04-06 16:37:00,
2013-04-06 11:42:00,56.3,29.0,29.55,SE,131,6.7,10.1,35,0.00,,---,0.00,VWS V14.00,2013-04-06 16:42:00,
2013-04-06 11:47:00,55.4,28.2,29.55,SSE,159,3.6,7.6,35,0.00,,---,0.00,VWS V14.00,2013-04-06 16:47:00,
2013-04-06 11:52:00,55.0,28.6,29.55,ESE,110,5.8,8.1,36,0.00,,---,0.00,VWS V14.00,2013-04-06 16:52:00,
2013-04-06 11:57:00,55.0,28.6,29.55,SE,133,5.8,8.7,36,0.00,,---,0.00,VWS V14.00,2013-04-06 16:57:00,
2013-04-06 12:03:00,54.7,28.3,29.55,SE,133,3.1,6.3,36,0.00,,---,0.00,VWS V14.00,2013-04-06 17:03:00,
2013-04-06 12:08:00,54.7,28.3,29.55,SE,140,5.8,8.1,36,0.00,,---,0.00,VWS V14.00,2013-04-06 17:08:00,
2013-04-06 12:13:00,54.0,27.6,29.55,SSE,149,6.3,8.7,36,0.00,,---,0.00,VWS V14.00,2013-04-06 17:13:00,
2013-04-06 12:18:00,53.1,27.5,29.55,SSE,165,6.3,8.7,37,0.00,,---,0.00,VWS V14.00,2013-04-06 17:18:00,
2013-04-06 12:23:00,52.2,26.7,29.55,ESE,123,7.6,8.7,37,0.00,,---,0.00,VWS V14.00,2013-04-06 17:23:00,
2013-04-06 12:28:00,51.6,26.9,29.55,SE,135,5.8,5.8,38,0.00,,---,0.00,VWS V14.00,2013-04-06 17:28:00,
2013-04-06 12:33:00,51.6,27.5,29.55,South,175,5.8,8.7,39,0.00,,---,0.00,VWS V14.00,2013-04-06 17:33:00,
2013-04-06 12:38:00,52.2,28.0,29.55,SE,137,3.1,8.1,39,0.00,,---,0.00,VWS V14.00,2013-04-06 17:38:00,
2013-04-06 12:43:00,52.0,27.2,29.55,SE,144,3.6,5.8,38,0.00,,---,0.00,VWS V14.00,2013-04-06 17:43:00,
2013-04-06 12:48:00,51.6,27.5,29.55,ESE,120,4.9,5.4,39,0.00,,---,0.00,VWS V14.00,2013-04-06 17:48:00,
2013-04-06 12:53:00,51.3,27.8,29.55,ESE,115,6.3,6.3,40,0.00,,---,0.00,VWS V14.00,2013-04-06 17:53:00,
2013-04-06 12:58:00,51.1,27.6,29.55,East,100,4.9,4.9,40,0.00,,---,0.00,VWS V14.00,2013-04-06 17:58:00,
2013-04-06 13:03:00,50.7,28.5,29.55,SSE,149,3.1,4.0,42,0.00,,---,0.00,VWS V14.00,2013-04-06 18:03:00,
2013-04-06 13:08:00,50.2,29.1,29.55,ESE,123,0.0,2.7,44,0.00,,---,0.00,VWS V14.00,2013-04-06 18:08:00,
2013-04-06 13:13:00,49.8,29.4,29.55,East,90,2.2,3.6,45,0.00,,---,0.00,VWS V14.00,2013-04-06 18:13:00,
2013-04-06 13:18:00,49.5,30.1,29.55,East,99,0.0,2.7,47,0.00,,---,0.00,VWS V14.00,2013-04-06 18:18:00,
2013-04-06 13:23:00,48.9,29.6,29.55,East,93,0.0,2.2,47,0.00,,---,0.00,VWS V14.00,2013-04-06 18:23:00,
2013-04-06 13:28:00,48.7,29.9,29.55,East,92,0.0,0.0,48,0.00,,---,0.00,VWS V14.00,2013-04-06 18:28:00,
2013-04-06 13:33:00,48.7,29.9,29.55,East,93,0.0,0.0,48,0.00,,---,0.00,VWS V14.00,2013-04-06 18:33:00,
2013-04-06 13:38:00,48.9,31.1,29.55,East,93,0.0,0.0,50,0.00,,---,0.00,VWS V14.00,2013-04-06 18:38:00,
2013-04-06 13:43:00,48.9,31.6,29.55,East,92,0.0,0.0,51,0.00,,---,0.00,VWS V14.00,2013-04-06 18:43:00,
2013-04-06 13:48:00,48.6,32.7,29.55,East,92,0.0,2.7,54,0.00,,---,0.00,VWS V14.00,2013-04-06 18:48:00,
2013-04-06 13:53:00,48.2,32.3,29.55,East,93,0.0,0.0,54,0.00,,---,0.00,VWS V14.00,2013-04-06 18:53:00,
2013-04-06 13:58:00,48.0,33.1,29.55,East,93,0.0,2.2,56,0.00,,---,0.00,VWS V14.00,2013-04-06 18:58:00,
2013-04-06 14:04:00,48.2,34.1,29.55,East,89,3.1,3.6,58,0.00,,---,0.00,VWS V14.00,2013-04-06 19:04:00,
2013-04-06 14:09:00,47.8,34.2,29.55,ENE,72,0.0,0.0,59,0.00,,---,0.00,VWS V14.00,2013-04-06 19:09:00,
2013-04-06 14:14:00,47.5,34.3,29.55,ENE,72,2.2,3.6,60,0.00,,---,0.00,VWS V14.00,2013-04-06 19:14:00,
2013-04-06 14:19:00,47.7,35.3,29.55,ENE,61,3.6,4.0,62,0.00,,---,0.00,VWS V14.00,2013-04-06 19:19:00,
2013-04-06 14:24:00,48.0,36.8,29.55,NE,43,4.9,5.8,65,0.00,,---,0.00,VWS V14.00,2013-04-06 19:24:00,
2013-04-06 14:29:00,48.2,37.4,29.52,East,87,4.9,4.9,66,0.00,,---,0.00,VWS V14.00,2013-04-06 19:29:00,
2013-04-06 14:34:00,47.8,36.7,29.52,NNE,30,3.6,6.3,65,0.00,,---,0.00,VWS V14.00,2013-04-06 19:34:00,
2013-04-06 14:39:00,47.5,36.3,29.52,NNE,31,4.0,4.0,65,0.00,,---,0.00,VWS V14.00,2013-04-06 19:39:00,
2013-04-06 14:44:00,47.3,36.2,29.55,ENE,62,3.1,4.0,65,0.00,,---,0.00,VWS V14.00,2013-04-06 19:44:00,
2013-04-06 14:49:00,46.8,36.0,29.55,NNE,28,5.4,5.8,66,0.00,,---,0.00,VWS V14.00,2013-04-06 19:49:00,
2013-04-06 14:54:00,46.4,35.7,29.55,NE,40,3.1,3.6,66,0.00,,---,0.00,VWS V14.00,2013-04-06 19:54:00,
2013-04-06 15:00:00,46.0,35.7,29.55,NNE,20,5.4,5.4,67,0.00,,---,0.00,VWS V14.00,2013-04-06 20:00:00,
2013-04-06 15:04:00,45.9,35.9,29.55,NNE,17,3.6,3.6,68,0.00,,---,0.00,VWS V14.00,2013-04-06 20:04:00,
2013-04-06 15:10:00,45.5,35.9,29.55,NNE,17,3.1,4.0,69,0.00,,---,0.00,VWS V14.00,2013-04-06 20:10:00,
2013-04-06 15:15:00,45.5,35.9,29.52,NNE,30,4.0,4.0,69,0.00,,---,0.00,VWS V14.00,2013-04-06 20:15:00,
2013-04-06 15:20:00,45.3,36.1,29.52,NNE,25,4.9,5.4,70,0.00,,---,0.00,VWS V14.00,2013-04-06 20:20:00,
2013-04-06 15:25:00,45.1,36.0,29.52,NNE,30,4.0,5.8,70,0.04,,---,0.04,VWS V14.00,2013-04-06 20:25:00,
2013-04-06 15:30:00,44.8,36.0,29.52,NE,44,6.3,8.3,71,0.04,,---,0.04,VWS V14.00,2013-04-06 20:30:00,
2013-04-06 15:35:00,44.4,36.3,29.52,NNE,23,5.8,6.3,73,0.04,,---,0.04,VWS V14.00,2013-04-06 20:35:00,
2013-04-06 15:40:00,44.1,36.3,29.52,NNE,26,5.4,6.3,74,0.04,,---,0.04,VWS V14.00,2013-04-06 20:40:00,
2013-04-06 15:45:00,43.7,36.0,29.52,NE,34,4.0,5.4,74,0.04,,---,0.04,VWS V14.00,2013-04-06 20:45:00,
2013-04-06 15:50:00,43.5,36.1,29.52,NNE,25,6.3,6.3,75,0.04,,---,0.04,VWS V14.00,2013-04-06 20:50:00,
2013-04-06 15:55:00,43.0,35.6,29.52,North,3,4.0,5.8,75,0.12,,---,0.12,VWS V14.00,2013-04-06 20:55:00,
2013-04-06 16:00:00,42.8,35.8,29.55,NE,38,5.4,5.4,76,0.12,,---,0.00,VWS V14.00,2013-04-06 21:00:00,
2013-04-06 16:05:00,42.4,35.8,29.55,North,0,4.0,4.0,77,0.12,,---,0.12,VWS V14.00,2013-04-06 21:05:00,
2013-04-06 16:10:00,42.1,35.7,29.55,North,357,8.7,8.7,78,0.12,,---,0.12,VWS V14.00,2013-04-06 21:10:00,
2013-04-06 16:15:00,41.5,35.5,29.55,NNE,15,6.3,8.1,79,0.12,,---,0.12,VWS V14.00,2013-04-06 21:15:00,
2013-04-06 16:20:00,41.4,36.0,29.55,North,357,6.3,7.6,81,0.12,,---,0.12,VWS V14.00,2013-04-06 21:20:00,
2013-04-06 16:25:00,41.0,35.9,29.55,North,0,8.1,9.2,82,0.16,,---,0.16,VWS V14.00,2013-04-06 21:25:00,
2013-04-06 16:30:00,40.5,36.0,29.55,North,357,6.3,8.7,84,0.12,,---,0.16,VWS V14.00,2013-04-06 21:30:00,
2013-04-06 16:35:00,40.1,36.0,29.55,North,0,5.4,8.3,85,0.12,,---,0.16,VWS V14.00,2013-04-06 21:35:00,
2013-04-06 16:40:00,39.7,35.6,29.55,North,353,8.1,8.7,85,0.12,,---,0.16,VWS V14.00,2013-04-06 21:40:00,
2013-04-06 16:45:00,39.4,35.5,29.55,NNW,337,8.7,10.1,86,0.12,,---,0.16,VWS V14.00,2013-04-06 21:45:00,
2013-04-06 16:50:00,39.2,35.7,29.55,North,0,7.6,8.3,87,0.12,,---,0.16,VWS V14.00,2013-04-06 21:50:00,
2013-04-06 16:55:00,39.0,35.8,29.55,NW,324,8.3,10.1,88,0.04,,---,0.16,VWS V14.00,2013-04-06 21:55:00,
2013-04-06 17:00:00,38.8,35.9,29.58,NW,326,6.3,8.7,89,0.04,,---,0.16,VWS V14.00,2013-04-06 22:00:00,
2013-04-06 17:05:00,38.7,36.0,29.58,NNW,333,8.7,8.7,90,0.04,,---,0.16,VWS V14.00,2013-04-06 22:05:00,
2013-04-06 17:10:00,38.7,36.3,29.58,NW,315,5.8,7.6,91,0.04,,---,0.16,VWS V14.00,2013-04-06 22:10:00,
2013-04-06 17:15:00,38.7,36.3,29.58,NNW,334,5.4,8.1,91,0.04,,---,0.16,VWS V14.00,2013-04-06 22:15:00,
2013-04-06 17:21:00,38.7,36.5,29.58,NNW,333,8.3,11.0,92,0.04,,---,0.16,VWS V14.00,2013-04-06 22:21:00,
2013-04-06 17:26:00,38.5,36.4,29.58,North,353,8.7,8.7,92,0.00,,---,0.16,VWS V14.00,2013-04-06 22:26:00,
2013-04-06 17:31:00,38.5,36.6,29.58,NNW,348,8.3,9.6,93,0.00,,---,0.16,VWS V14.00,2013-04-06 22:31:00,
2013-04-06 17:36:00,38.5,36.6,29.58,NNW,327,8.3,8.7,93,0.00,,---,0.16,VWS V14.00,2013-04-06 22:36:00,
2013-04-06 17:41:00,38.5,36.9,29.58,North,0,8.7,8.7,94,0.00,,---,0.16,VWS V14.00,2013-04-06 22:41:00,
2013-04-06 17:46:00,38.7,37.1,29.58,North,0,11.0,11.0,94,0.00,,---,0.16,VWS V14.00,2013-04-06 22:46:00,
2013-04-06 17:51:00,38.7,37.3,29.58,North,0,8.1,9.2,95,0.00,,---,0.16,VWS V14.00,2013-04-06 22:51:00,
2013-04-06 17:56:00,38.7,37.3,29.58,NNW,334,7.6,8.1,95,0.00,,---,0.16,VWS V14.00,2013-04-06 22:56:00,
2013-04-06 18:01:00,38.7,37.3,29.61,NNW,344,8.3,10.5,95,0.00,,---,0.16,VWS V14.00,2013-04-06 23:01:00,
2013-04-06 18:07:00,38.7,37.3,29.61,NW,319,7.6,8.3,95,0.00,,---,0.16,VWS V14.00,2013-04-06 23:07:00,
2013-04-06 18:12:00,38.5,37.2,29.61,NNW,332,7.6,11.0,95,0.00,,---,0.16,VWS V14.00,2013-04-06 23:12:00,
2013-04-06 18:17:00,38.5,37.2,29.61,NNW,337,8.1,8.3,95,0.00,,---,0.16,VWS V14.00,2013-04-06 23:17:00,
2013-04-06 18:22:00,38.7,37.3,29.61,NNW,339,8.3,8.7,95,0.00,,---,0.16,VWS V14.00,2013-04-06 23:22:00,
2013-04-06 18:27:00,38.7,37.3,29.61,NNW,341,7.6,8.1,95,0.00,,---,0.16,VWS V14.00,2013-04-06 23:27:00,
2013-04-06 18:32:00,38.8,37.5,29.61,NNW,335,7.2,8.1,95,0.00,,---,0.16,VWS V14.00,2013-04-06 23:32:00,
2013-04-06 18:37:00,38.8,37.5,29.61,NW,310,7.6,7.6,95,0.00,,---,0.16,VWS V14.00,2013-04-06 23:37:00,
2013-04-06 18:42:00,38.8,37.5,29.64,NNW,329,7.6,8.3,95,0.00,,---,0.16,VWS V14.00,2013-04-06 23:42:00,
2013-04-06 18:47:00,38.7,37.3,29.64,NW,306,8.1,8.7,95,0.00,,---,0.16,VWS V14.00,2013-04-06 23:47:00,
2013-04-06 18:52:00,38.7,37.3,29.64,NNW,330,7.6,7.6,95,0.00,,---,0.16,VWS V14.00,2013-04-06 23:52:00,
2013-04-06 18:57:00,38.7,37.3,29.64,NNW,334,9.2,9.2,95,0.00,,---,0.16,VWS V14.00,2013-04-06 23:57:00,
2013-04-06 19:02:00,38.7,37.3,29.64,NNW,334,8.3,8.7,95,0.00,,---,0.16,VWS V14.00,2013-04-07 00:02:00,
2013-04-06 19:07:00,38.7,37.3,29.64,NW,314,8.1,10.1,95,0.00,,---,0.16,VWS V14.00,2013-04-07 00:07:00,
2013-04-06 19:12:00,38.5,37.2,29.64,NNW,327,6.3,8.1,95,0.00,,---,0.16,VWS V14.00,2013-04-07 00:12:00,
2013-04-06 19:17:00,38.5,37.2,29.64,NNW,333,5.8,7.6,95,0.00,,---,0.16,VWS V14.00,2013-04-07 00:17:00,
2013-04-06 19:22:00,38.3,37.0,29.64,NW,324,5.8,6.3,95,0.00,,---,0.16,VWS V14.00,2013-04-07 00:22:00,
2013-04-06 19:28:00,38.1,36.5,29.64,NW,309,6.3,6.3,94,0.00,,---,0.16,VWS V14.00,2013-04-07 00:28:00,
2013-04-06 19:33:00,38.1,36.5,29.64,NW,325,4.0,5.4,94,0.00,,---,0.16,VWS V14.00,2013-04-07 00:33:00,
2013-04-06 19:38:00,38.1,36.8,29.64,NNW,329,5.8,6.3,95,0.00,,---,0.16,VWS V14.00,2013-04-07 00:38:00,
2013-04-06 19:43:00,37.9,36.6,29.64,NNW,343,4.9,5.4,95,0.00,,---,0.16,VWS V14.00,2013-04-07 00:43:00,
2013-04-06 19:48:00,37.9,36.6,29.64,NW,317,4.9,6.3,95,0.00,,---,0.16,VWS V14.00,2013-04-07 00:48:00,
2013-04-06 19:53:00,37.8,36.5,29.64,NW,316,5.8,5.8,95,0.00,,---,0.16,VWS V14.00,2013-04-07 00:53:00,
2013-04-06 19:58:00,37.8,36.5,29.67,NNW,344,8.7,11.0,95,0.00,,---,0.16,VWS V14.00,2013-04-07 00:58:00,
2013-04-06 20:03:00,37.6,36.3,29.67,NNW,334,5.8,8.7,95,0.00,,---,0.16,VWS V14.00,2013-04-07 01:03:00,
2013-04-06 20:08:00,37.4,36.1,29.67,NW,322,10.1,10.5,95,0.00,,---,0.16,VWS V14.00,2013-04-07 01:08:00,
2013-04-06 20:13:00,37.2,35.9,29.67,NW,321,8.3,10.5,95,0.00,,---,0.16,VWS V14.00,2013-04-07 01:13:00,
2013-04-06 20:18:00,37.0,35.7,29.67,WNW,293,8.3,8.3,95,0.00,,---,0.16,VWS V14.00,2013-04-07 01:18:00,
2013-04-06 20:23:00,37.0,35.7,29.67,NNW,327,8.1,8.7,95,0.00,,---,0.16,VWS V14.00,2013-04-07 01:23:00,
2013-04-06 20:28:00,37.0,35.7,29.67,NW,314,5.8,10.5,95,0.00,,---,0.16,VWS V14.00,2013-04-07 01:28:00,
2013-04-06 20:33:00,37.0,35.7,29.67,NW,308,8.1,8.7,95,0.00,,---,0.16,VWS V14.00,2013-04-07 01:33:00,
2013-04-06 20:38:00,36.9,35.3,29.67,NW,317,5.4,8.3,94,0.00,,---,0.16,VWS V14.00,2013-04-07 01:38:00,
2013-04-06 20:43:00,36.9,35.3,29.67,NNW,329,8.3,8.7,94,0.00,,---,0.16,VWS V14.00,2013-04-07 01:43:00,
2013-04-06 20:48:00,36.7,35.1,29.67,NW,316,5.4,8.7,94,0.00,,---,0.16,VWS V14.00,2013-04-07 01:48:00,
2013-04-06 20:53:00,36.7,35.1,29.67,NW,318,8.3,8.3,94,0.00,,---,0.16,VWS V14.00,2013-04-07 01:53:00,
2013-04-06 20:58:00,36.7,35.1,29.70,NNW,328,8.7,8.7,94,0.00,,---,0.16,VWS V14.00,2013-04-07 01:58:00,
2013-04-06 21:03:00,36.7,35.1,29.70,NW,324,6.3,8.7,94,0.00,,---,0.16,VWS V14.00,2013-04-07 02:03:00,
2013-04-06 21:08:00,36.5,34.7,29.70,NW,324,5.4,6.3,93,0.00,,---,0.16,VWS V14.00,2013-04-07 02:08:00,
2013-04-06 21:13:00,36.7,34.8,29.70,NNW,342,5.8,8.7,93,0.00,,---,0.16,VWS V14.00,2013-04-07 02:13:00,
2013-04-06 21:18:00,36.5,34.4,29.70,NW,312,8.3,11.4,92,0.00,,---,0.16,VWS V14.00,2013-04-07 02:18:00,
2013-04-06 21:23:00,36.5,34.4,29.70,NW,312,6.3,8.3,92,0.00,,---,0.16,VWS V14.00,2013-04-07 02:23:00,
2013-04-06 21:28:00,36.5,34.1,29.70,NW,325,6.3,8.3,91,0.00,,---,0.16,VWS V14.00,2013-04-07 02:28:00,
2013-04-06 21:33:00,36.5,33.6,29.70,WNW,303,5.4,6.3,89,0.00,,---,0.16,VWS V14.00,2013-04-07 02:33:00,
2013-04-06 21:38:00,36.3,33.4,29.70,WNW,302,3.6,6.3,89,0.00,,---,0.16,VWS V14.00,2013-04-07 02:38:00,
2013-04-06 21:43:00,36.3,33.1,29.70,NW,310,6.3,6.3,88,0.00,,---,0.16,VWS V14.00,2013-04-07 02:43:00,
2013-04-06 21:49:00,36.3,33.1,29.70,NW,306,4.9,6.7,88,0.00,,---,0.16,VWS V14.00,2013-04-07 02:49:00,
2013-04-06 21:54:00,36.3,33.1,29.70,NW,304,4.9,5.8,88,0.00,,---,0.16,VWS V14.00,2013-04-07 02:54:00,
2013-04-06 21:59:00,36.3,32.8,29.70,NW,311,7.6,8.1,87,0.00,,---,0.16,VWS V14.00,2013-04-07 02:59:00,
2013-04-06 22:04:00,36.3,32.8,29.70,WNW,297,6.3,6.3,87,0.00,,---,0.16,VWS V14.00,2013-04-07 03:04:00,
2013-04-06 22:09:00,36.3,32.8,29.70,WNW,301,3.1,5.8,87,0.00,,---,0.16,VWS V14.00,2013-04-07 03:09:00,
2013-04-06 22:14:00,36.3,32.8,29.70,WNW,294,4.9,7.6,87,0.00,,---,0.16,VWS V14.00,2013-04-07 03:14:00,
2013-04-06 22:19:00,36.3,32.8,29.70,NW,317,4.0,5.8,87,0.00,,---,0.16,VWS V14.00,2013-04-07 03:19:00,
2013-04-06 22:24:00,36.3,32.8,29.70,WNW,286,5.4,6.3,87,0.00,,---,0.16,VWS V14.00,2013-04-07 03:24:00,
2013-04-06 22:29:00,36.3,32.8,29.73,NW,305,8.1,8.1,87,0.00,,---,0.16,VWS V14.00,2013-04-07 03:29:00,
2013-04-06 22:34:00,36.3,32.8,29.73,West,270,4.0,5.4,87,0.00,,---,0.16,VWS V14.00,2013-04-07 03:34:00,
2013-04-06 22:39:00,36.3,32.5,29.73,NNW,337,5.4,5.8,86,0.00,,---,0.16,VWS V14.00,2013-04-07 03:39:00,
2013-04-06 22:44:00,36.5,32.7,29.73,WNW,298,5.8,6.3,86,0.00,,---,0.16,VWS V14.00,2013-04-07 03:44:00,
2013-04-06 22:50:00,36.3,32.5,29.73,WNW,301,6.3,8.3,86,0.00,,---,0.16,VWS V14.00,2013-04-07 03:50:00,
2013-04-06 22:55:00,36.5,32.7,29.73,West,271,5.8,8.3,86,0.00,,---,0.16,VWS V14.00,2013-04-07 03:55:00,
2013-04-06 23:00:00,36.5,32.4,29.73,NW,304,8.3,8.3,85,0.00,,---,0.16,VWS V14.00,2013-04-07 04:00:00,
2013-04-06 23:01:00,36.5,32.4,29.73,WNW,303,6.3,8.3,85,0.00,,---,0.16,VWS V14.00,2013-04-07 04:01:00,
2013-04-06 23:02:00,36.5,32.4,29.73,NW,312,5.4,8.1,85,0.00,,---,0.16,VWS V14.00,2013-04-07 04:02:00,
2013-04-06 23:07:00,36.5,32.4,29.73,NW,317,8.1,8.3,85,0.00,,---,0.16,VWS V14.00,2013-04-07 04:07:00,
2013-04-06 23:12:00,36.5,32.4,29.73,NNW,333,5.8,7.6,85,0.00,,---,0.16,VWS V14.00,2013-04-07 04:12:00,
2013-04-06 23:17:00,36.5,32.1,29.73,NW,319,8.1,8.1,84,0.00,,---,0.16,VWS V14.00,2013-04-07 04:17:00,
2013-04-06 23:22:00,36.5,32.1,29.73,NW,320,6.3,6.3,84,0.00,,---,0.16,VWS V14.00,2013-04-07 04:22:00,
2013-04-06 23:27:00,36.5,31.8,29.73,NW,318,4.0,8.1,83,0.00,,---,0.16,VWS V14.00,2013-04-07 04:27:00,
2013-04-06 23:32:00,36.5,31.8,29.73,NW,320,4.0,4.9,83,0.00,,---,0.16,VWS V14.00,2013-04-07 04:32:00,
2013-04-06 23:37:00,36.5,31.8,29.73,NW,311,5.8,6.7,83,0.00,,---,0.16,VWS V14.00,2013-04-07 04:37:00,
2013-04-06 23:42:00,36.5,31.5,29.73,WNW,301,5.4,6.3,82,0.00,,---,0.16,VWS V14.00,2013-04-07 04:42:00,
2013-04-06 23:47:00,36.5,31.5,29.73,NNW,338,5.4,6.3,82,0.00,,---,0.16,VWS V14.00,2013-04-07 04:47:00,
2013-04-06 23:52:00,36.3,31.4,29.73,NW,322,5.4,6.3,82,0.00,,---,0.16,VWS V14.00,2013-04-07 04:52:00,
2013-04-06 23:57:00,36.3,31.1,29.73,NW,313,4.0,5.4,81,0.00,,---,0.16,VWS V14.00,2013-04-07 04:57:00,